Aquadilla, PR

2:40 PM AST on June 25, 2018 (GMT -0400)
Rafael Hernandez

Weather History for TJBQ - September, 2017

Change the Weather History Date:

Wednesday, September 13, 2017

  Actual Average Record
Temperature  
Mean Temperature 81 °F -  
Max Temperature 87 °F 84 °F 91 °F (2013)
Min Temperature 75 °F 73 °F 73 °F (1998)
Cooling Degree Days 16    
Growing Degree Days 31 (Base 50)    
Moisture  
Dew Point 74 °F    
Average Humidity 75    
Maximum Humidity 89    
Minimum Humidity 58    
Precipitation  
Precipitation 0.00 in - - ()
Sea Level Pressure  
Sea Level Pressure 29.92 in    
Wind  
Wind Speed 3 mph (West)    
Max Wind Speed 9 mph    
Max Gust Speed -    
Visibility 10 miles    
Events      
Averages and records for this station are not official NWS values.
T = Trace of Precipitation, MM = Missing Value Source: NWS Daily Summary

Daily Weather History Graph

Daily Weather History Graph

Search for Another Location

Airport or City:

Astronomy

Sep. 13, 2017 Rise Set
Actual Time 6:16 AM AST 6:32 PM AST
Civil Twilight 5:54 AM AST 6:54 PM AST
Nautical Twilight 5:28 AM AST 7:19 PM AST
Astronomical Twilight 5:03 AM AST 7:45 PM AST
Moon No Moon Rise 1:09 PM AST (9/13)
Length of Visible Light 13h 00m
Length of Day
12h 16m
Last Quarter, 46% of the Moon is Illuminated
Sep 13
Last Quarter
Sep 20
New
Sep 27
First Quarter
Oct 5
Full
Oct 12
Last Quarter

Hourly Weather History & Observations

Time (AST) Temp. Heat Index Dew Point Humidity Pressure Visibility Wind Dir Wind Speed Gust Speed Precip Events Conditions
6:50 AM 75.2 °F - 71.6 °F 89% 29.91 in 10.0 mi South 3.5 mph - N/A   Overcast
7:50 AM 78.8 °F - 73.4 °F 83% 29.93 in 10.0 mi Calm Calm - N/A   Haze
8:50 AM 82.4 °F 88.2 °F 73.4 °F 74% 29.94 in 10.0 mi Calm Calm - N/A   Haze
9:50 AM 84.2 °F 89.6 °F 71.6 °F 66% 29.96 in 10.0 mi Calm Calm - N/A   Haze
10:50 AM 87.8 °F 93.8 °F 71.6 °F 58% 29.95 in 10.0 mi Calm Calm - N/A   Haze
11:10 AM 87.8 °F 93.8 °F 71.6 °F 58% 29.95 in 10.0 mi SW 5.8 mph - N/A   Haze
11:50 AM 87.8 °F 95.6 °F 73.4 °F 62% 29.94 in 10.0 mi NW 6.9 mph - N/A   Haze
12:50 PM 87.8 °F 97.6 °F 75.2 °F 66% 29.93 in 10.0 mi NNW 9.2 mph - N/A   Haze
1:50 PM 87.8 °F 97.6 °F 75.2 °F 66% 29.91 in 10.0 mi NNW 3.5 mph - N/A   Scattered Clouds
2:50 PM 86.0 °F 95.1 °F 75.2 °F 70% 29.89 in 10.0 mi WNW 6.9 mph - N/A   Haze
3:50 PM 84.2 °F 92.3 °F 75.2 °F 74% 29.88 in 10.0 mi West 6.9 mph - N/A   Haze
4:50 PM 84.2 °F 92.3 °F 75.2 °F 74% 29.88 in 10.0 mi WNW 6.9 mph - N/A   Haze
5:50 PM 82.4 °F 89.5 °F 75.2 °F 79% 29.89 in 10.0 mi West 5.8 mph - N/A   Clear
6:50 PM 82.4 °F 89.5 °F 75.2 °F 79% 29.90 in 10.0 mi West 4.6 mph - N/A   Mostly Cloudy
7:50 PM 82.4 °F 89.5 °F 75.2 °F 79% 29.92 in 10.0 mi WSW 4.6 mph - N/A   Clear
8:50 PM 80.6 °F 86.2 °F 75.2 °F 84% 29.94 in 10.0 mi Calm Calm - N/A   Clear
9:50 PM 80.6 °F 86.2 °F 75.2 °F 84% 29.96 in 10.0 mi Calm Calm - N/A   Clear
10:50 PM 78.8 °F - 75.2 °F 89% 29.94 in 10.0 mi Calm Calm - N/A   Clear
11:50 PM 78.8 °F - 75.2 °F 89% 29.94 in 10.0 mi Calm Calm - N/A   Clear